CZ-3C DEB, 39351

Orbit data source: Space-Track

CZ-3C DEB, 39351 is space debris in HEO originally from a launch on Sun, 31 Oct 2010 UTC launched from the Xichang Space Center, China (XSC). Debris objects in space refer to the collection of defunct objects orbiting the Earth. Examples of debris include non-operational satellites, rocket bodies, and fragments generated from explosions, collisions, or faulty payload assembly.

Loading next visibility...
Identifier
39351, 2010-057R
Orbit
HEO
Country
Flag of CNCN / PRC
Related business
Manufacturer
CALT
Mission
Spacecraft
Bus & Motor
Unknown
Mass
Unknown
Launch date (UTC)
2010-10-31 (15 years ago)
Launch vehicle
Unknown
Launch site
Xichang Space Center, China (XSC)
Object type
Payload
Rocket body
Debris
Shape & HBR
Unknown shape, 0.3 m
Radar Cross Section
Medium (>0.1 m² and <1 m²)

Expand to show TLE details & history
Last TLE update: 2 days ago

TLE from 2 days ago
0 CZ-3C DEB
1 39351U 10057R   26105.73796434 -.00000135  00000-0 -15881-2 0  9997
2 39351  20.2600 127.7799 7104985  92.3257   9.8009  2.26489023103609
Epoch: 2026-04-15T17:42Z
TLE epoch observation values (Epoch: 2026-04-15T17:42:40.118Z)
Latitude
6.98534°
Longitude
179.06026°
Altitude
3,113.613 km
Speed
8.229 km/s
True Right ascension
19h 14m 29s
True Declination
6° 57' 15"
Sunlit
Object was in daylight at epoch
Visualization orbit readout
Latitude
Unknown
Longitude
Unknown
Altitude
Unknown
Speed
Unknown
Apparent Right ascension
Unknown
Apparent Declination
Unknown
Sunlit
N/A
Visualization observer readout
Local Sidereal Time
15:55:00
Azimuth
Unknown
Elevation
Unknown
Doppler factor
Unknown
Orbital elements
Apogee altitude
35,523.894 km
Perigee altitude
713.773 km
Semi-major axis
24,496.971 km
Eccentricity
0.7105
Inclination
20.26°
RAAN
127.7799°
Arg. of periapsis
92.3257°
True anomaly
66.88642°
Mean anomaly
9.8009°
Eccentric anomaly
30.40209°
Mean motion
0.56608 °/min
Orbital period
635.96 mins
BSTAR
-0.0015881
Loading maneuver chart data...
Computing Atmospheric mass density...
Loading historical data...
Loading historical data...
Loading historical data...
Loading historical data...
Loading historical data...
Loading historical data...
Loading historical data...

Documentation

Showing up to 5 results
|